Tracking 18852 objects as of 23-Nov-2017
HD Live streaming from Space Station
objects crossing your sky now

NADEZHDA 6

Track NADEZHDA 6 now!
10-day predictions
NADEZHDA 6 is classified as:


NORAD ID: 26384
Int'l Code: 2000-033A
Perigee: 670.0 km
Apogee: 689.5 km
Inclination: 98.0 °
Period: 98.2 minutes
Semi major axis: 7050 km
RCS: 1.836 m2 (large)
Launch date: June 28, 2000
Source: Commonwealth of Independent States (former USSR) (CIS)
Launch site: PLESETSK MISSILE AND SPACE COMPLEX (PKMTR)

Search and rescue; part of COSPAS/SARSAT fleet.
aabbcc
Your satellite tracking list
Your tracking list is empty




NASA's NSSDC Master Catalog

Two Line Element Set (TLE):
1 26384U 00033A   17327.43618194  .00000097  00000-0  26051-4 0  9999
2 26384  97.9971  29.4296 0013832 244.7829 115.1944 14.66386728930145
Source of the keplerian elements: AFSPC